Regional Weather Roundup
Issued by NWS Green Bay, WI

Home | Current Version | Previous Version | Text Only | Print | Product List | Glossary On
Versions: 1 2 3 4 5 6 7 8 9 10 11 12 13 14 15 16 17 18 19 20 21 22 23 24 25 26 27 28 29 30 31 32 33 34 35 36 37 38 39 40 41 42 43 44 45 46 47 48 49 50
000
ASUS43 KGRB 252000
RWRGRB

NORTH-CENTRAL AND NORTHEAST WISCONSIN REGIONAL WEATHER ROUNDUP
NATIONAL WEATHER SERVICE GREEN BAY WI
300 PM CDT WED MAY 25 2016

WIZ005-009-010>012-018-019-252100-
NORTH CENTRAL WISCONSIN

CITY           SKY/WX    TMP DP  RH WIND       PRES   REMARKS
IRONWOOD       CLOUDY    75  54  46 SE9       29.90F
MANITOWISH WTR NOT AVBL
ARBOR VITAE    NOT AVBL
EAGLE RIVER    NOT AVBL
LAND O LAKES   NOT AVBL
RHINELANDER    CLOUDY    77  56  48 E14       29.95F
PHILLIPS       NOT AVBL
ANTIGO         NOT AVBL
TOMAHAWK       NOT AVBL
MERRILL        NOT AVBL
$$

WIZ013-073-252100-
NORTHEAST WISCONSIN

CITY           SKY/WX    TMP DP  RH WIND       PRES   REMARKS
IRON MOUNTAIN  SUNNY     72  57  59 E8        30.00F
MARINETTE      CLOUDY    61  55  82 E16       30.02F
$$

WIZ017-030-035>037-045-252100-
CENTRAL WISCONSIN

CITY           SKY/WX    TMP DP  RH WIND       PRES   REMARKS
MEDFORD        NOT AVBL
WAUSAU         MOSUNNY   77  59  53 E16G23    29.90F
MOSINEE        SUNNY     73  61  64 E12G18    29.92F
MARSHFIELD     CLOUDY    74  61  63 SE10      29.88F
WISC RAPIDS    CLOUDY    77  59  53 E17       29.89F
STEVENS POINT  NOT AVBL
WAUPACA        NOT AVBL
SHAWANO        NOT AVBL
CLINTONVILLE   NOT AVBL
WAUTOMA        CLOUDY    77  62  59 E16G24    29.88F
$$

WIZ038-039-048-051-252100-
FOX VALLEY

CITY           SKY/WX    TMP DP  RH WIND       PRES   REMARKS
NWS GREEN BAY  MOSUNNY   70  59  68 NE14      29.97F
APPLETON       PTSUNNY   75  55  50 E13G18    29.93F
OSHKOSH        CLOUDY    76  59  55 E15G22    29.92F
FOND DU LAC    MOSUNNY   80  61  52 E13G22    29.92F
$$

WIZ022-050-052-252100-
EAST CENTRAL WISCONSIN

CITY           SKY/WX    TMP DP  RH WIND       PRES   REMARKS
EPHRAIM        NOT AVBL
STURGEON BAY   NOT AVBL
MANITOWOC      NOT AVBL
SHEBOYGAN      MOSUNNY   61  54  77 E15       29.99F
$$

LMZ563-521-522-541>543-252100-
LAKESHORE

STATION/POSITION TIME  TEMP    WIND        PRES    VSBY  WAVE
                       AIR SEA DIR/SP/G                  HT/PER
                 (UTC) (F)     (DEG/KT/KT) (MB)    (MI)  (FT/S)
SHEBOYGAN LKSHOR 1900   49      20/ 12/ 13 1016.6F
KEWAUNEE LKSHORE 1900   51      30/  5/ 11 1016.3F
ALGOMA MARINA    1917           60/ 19/ 25   N/A
NORTHPORT PIER   1900   60      70/  6/  9 1017.6F
N MID LAKE BUOY  1850   49 45   20/ 10/ 12 1017.2F         0
CHAMBERS ISLAND  1900   56      20/ 12/ 14 1017.3F
MENOMINEE LKSHOR 1900   54      20/ 14/ 15 1015.9F
$$




USA.gov is the U.S. government's official web portal to all federal, state and local government web resources and services.